Location: Cabeza de los Veneras
(40.2000°N, 5.2000°W)
Time: 18:03:21
(UTC+00:00)

BlueWalker 3 - Pass Details

Date: 30 June 2024
Orbit: 480 x 491 km, 53.2° (Epoch: 23 July)

Event Time Altitude Azimuth Distance (km) Brightness Sun altitude
Rises 21:32:15 0° 315° (NW) 2,543 7.4 -15.1°
Reaches altitude 10° 21:35:15 10° 340° (NNW) 1,660 5.7 -15.4°
Maximum altitude 21:37:23 15° 15° (NNE) 1,400 4.6 -15.7°
Drops below altitude 10° 21:39:31 10° 51° (NE) 1,656 4.6 -15.9°
Enters shadow 21:41:31 - 70° (ENE) 2,210 5.0 -16.2°
